SALSAT
1 46495U 20068K 24326.33377359 .00011310 00000-0 56576-3 0 9999
2 46495 97.8378 290.2021 0014385 127.4476 232.8067 15.17512446228107
IDEASSat
1 47458U 21006AX 24326.58695442 .00455388 00000-0 17448-2 0 9996
2 47458 97.2960 29.7616 0003034 312.0532 48.0481 15.86312927213061
CubeSX-Sirius-HSE
1 47951U 21022V 24326.71504531 .00051627 00000-0 12869-2 0 9995
2 47951 97.4398 225.8262 0007989 315.6318 44.4286 15.40020796202685
CubeSX-HSE
1 47952U 21022W 24326.71461449 .00054779 00000-0 13497-2 0 9995
2 47952 97.4396 225.9628 0007804 313.0507 47.0085 15.40360628202697
KSU-Cubesat
1 47954U 21022Y 24326.55735285 .00082709 00000-0 15595-2 0 9996
2 47954 97.4396 228.2471 0004853 311.4141 48.6692 15.48184950202543
GRBAlpha
1 47959U 21022AD 24326.80247080 .00055604 00000-0 13697-2 0 9995
2 47959 97.4398 226.2201 0007722 313.1491 46.9108 15.40365004201538
Orbicraft-Zorkiy
1 47960U 21022AE 24326.74880686 .00072585 00000-0 15095-2 0 9996
2 47960 97.4440 228.2601 0005899 315.1364 44.9407 15.45367547202325
TUBIN
1 48900U 21059X 24326.73287816 .00035447 00000-0 86965-3 0 9997
2 48900 97.6619 117.2183 0005420 248.9123 111.1543 15.40609785189081
LEDSAT
1 49069U 21073D 24326.14292515 .00037651 00000-0 10633-2 0 9994
2 49069 97.4185 37.1314 0015820 86.9856 273.3197 15.36143898180448
CUTE
1 49263U 21088D 24326.56709545 .00040459 00000-0 12966-2 0 9999
2 49263 97.4772 32.5285 0010390 244.5572 115.4595 15.32196155173626
TeikyoSat 4
1 49396U 21102B 24326.47790117 .00004284 00000-0 29744-3 0 9997
2 49396 97.4390 6.0014 0014307 98.3454 261.9396 15.05990696166418
Z-Sat
1 49399U 21102E 24326.68900458 .00007245 00000-0 43157-3 0 9998
2 49399 97.4103 8.2526 0020736 77.0336 283.3208 15.11306478166754
KOSEN 1
1 49402U 21102H 24326.35888133 .00010309 00000-0 54409-3 0 9999
2 49402 97.4027 10.0512 0018705 60.1210 300.1879 15.15569408166915
HO-113
1 50466U 21131B 24326.86426819 .00001375 00000-0 44812-3 0 9998
2 50466 98.5221 51.2000 0004449 29.1659 330.9777 14.40268896152698
IRIS-A
1 51044U 22002BN 24326.13215611 .00050390 00000-0 10460-2 0 9997
2 51044 97.3626 33.2052 0004649 185.7348 174.3848 15.45527664158535
Planetum 1
1 52738U 22057G 24325.94187774 .00909939 38809-3 20013-2 0 9992
2 52738 97.5664 101.6852 0009574 293.7026 66.3246 15.98081498138968
Foresail-1
1 52766U 22057AL 24325.83893407 .00048952 00000-0 10072-2 0 9990
2 52766 97.5974 96.5394 0007858 290.7673 69.2733 15.45773704138529
SNUGLITE 2
1 52899U 22065F 24326.87840242 .00003093 00000-0 62502-3 0 9993
2 52899 98.1414 105.3101 0007937 27.0625 333.0988 14.62066868127293
IO-117
1 53106U 22080B 24323.52137211 -.00000003 00000-0 00000+0 0 9996
2 53106 70.1294 138.9057 0008387 72.7310 287.4267 6.42557804 55185
FO-118
1 54684U 22167C 24326.79634035 .00101289 00000-0 16694-2 0 9998
2 54684 97.6160 117.5507 0008985 298.6130 61.4217 15.51908763108536
SSS-2B
1 56184U 23054G 24326.62928594 .00265931 00000-0 15832-2 0 9997
2 56184 97.3391 228.5652 0004502 74.0203 286.1559 15.77202051 90572
SO-120
1 56992U 23084BU 24326.57552788 .00126639 00000-0 20027-2 0 9992
2 56992 97.5377 89.9505 0007432 202.1015 157.9918 15.52984050 80360
MRC-100
1 56993U 23084BV 24324.30292007 .00188189 00000-0 20308-2 0 9997
2 56993 97.5371 89.0134 0006949 228.0193 132.0473 15.63013063 80112
UmKA 1 (RS40S)
1 57172U 23091G 24326.87074958 .00010738 00000-0 64085-3 0 9997
2 57172 97.5906 17.4980 0014429 305.9886 54.0006 15.11223540 77270
CubeBel-2 (EU11S)
1 57175U 23091K 24326.82687199 .00014960 00000-0 84412-3 0 9999
2 57175 97.5905 17.6979 0012971 317.6954 42.3276 15.13183069 77281
VERONIKA
1 58261U 23174F 24326.72376675 .00044325 00000-0 13314-2 0 9991
2 58261 97.4429 41.1329 0009440 47.9263 312.2781 15.34248125 57749
KAFASAT
1 58317U 23174BP 24326.60576929 .00076567 00000-0 17299-2 0 9993
2 58317 97.4358 42.6885 0007373 15.3763 344.7707 15.42881687 57857
ENSO
1 58470U 23185J 24326.66300074 .00036224 00000-0 10944-2 0 9993
2 58470 97.4056 32.5761 0010816 82.2555 277.9915 15.34096188 54187
EIRSAT-1
1 58472U 23185L 24326.64935944 .00041360 00000-0 11697-2 0 9996
2 58472 97.4049 32.8642 0010082 82.0415 278.1972 15.36154096 54204
SONATE-2
1 59112U 24043Q 24325.82022329 .00020647 00000-0 81085-3 0 9999
2 59112 97.4946 88.8156 0013729 105.6490 254.6264 15.25646725 39624
MO-122
1 60209U 24125G 24326.06150832 .00021883 00000-0 85335-3 0 9992
2 60209 97.3002 175.0800 0024339 129.2744 231.0659 15.25673335 21279
GRBBeta
1 60237U 24128C 24326.23572947 .00007046 00000-0 58400-3 0 9998
2 60237 61.9944 56.4458 0027550 5.3031 354.8344 14.99391518 20122
Curium One
1 60242U 24128H 24326.27101757 .00010974 00000-0 89031-3 0 9993
2 60242 61.9847 56.4561 0027802 355.9846 4.1016 14.99795128 20130
ROBUSTA-3A
1 60243U 24128J 24325.82477387 .00011332 00000-0 92711-3 0 9997
2 60243 61.9916 58.2786 0025821 353.1975 6.8760 14.99489409 20068
CatSat
1 60246U 24125J 24326.02528884 .00015839 00000-0 63780-3 0 9999
2 60246 97.2810 175.9167 0050593 85.5339 275.1676 15.23741870 19370
CosmoGirlSat
1 60953U 98067WT 24326.82063789 .00488318 00000-0 18106-2 0 9993
2 60953 51.6218 245.8135 0009611 174.7218 185.3889 15.86228472 13217
Sakura
1 60954U 98067WU 24325.93838509 .00844473 32754-3 19670-2 0 9994
2 60954 51.6187 248.8973 0010150 173.0652 187.0499 15.96385162 13093
CySat-1
1 61501U 98067WZ 24326.20093057 .00189482 00000-0 18428-2 0 9993
2 61501 51.6334 255.2241 0010717 180.6027 179.4957 15.65080158 6869
DORA
1 61502U 98067XA 24326.20992236 .01139871 55920-3 40674-2 0 9991
2 61502 51.6207 253.0047 0014974 173.4170 186.7034 15.88165659 6881
/EX
1
0
SB KEPS @ AMSAT $ORB24320.1
2Line Orbital Elements 24320.AMSAT
QST de W1STR
AMSAT Orbital Elements for Amateur Satellites in TLE Format
>From Orbital Analysis Office
New England Sci-Tech STEM Education Center
Natick, MA November 15, 2024
To all radio amateurs
These element sets describe the orbits of various satellites
in use by the amateur radio community. For details see:
www.amsat.org/keplerian-elements-formats/
A daily update of element sets is available at:
www.amsat.org/tle/daily-bulletin.txt
or without bulletin text:
www.amsat.org/tle/dailytle.txt
AO-07
1 07530U 74089B 24319.58167947 -.00000025 00000-0 13340-3 0 9991
2 07530 101.9894 315.6958 0012219 156.1148 323.7686 12.53682511287889
UO-11
1 14781U 84021B 24319.39018770 .00003981 00000-0 43916-3 0 9997
2 14781 97.7260 284.4309 0006520 311.0356 49.0296 14.88022856170817
AO-27
1 22825U 93061C 24319.14356552 .00000428 00000-0 18096-3 0 9999
2 22825 98.7693 13.3475 0008452 8.1514 351.9804 14.30655266624059
FO-29
1 24278U 96046B 24319.36167610 .00000044 00000-0 78800-4 0 9992
2 24278 98.5853 234.3471 0350396 159.1421 202.4428 13.53221555394747
NOAA-15
1 25338U 98030A 24319.60020358 .00000498 00000-0 22314-3 0 9990
2 25338 98.5565 343.5196 0009280 242.1801 117.8439 14.26795906378885
GO-32
1 25397U 98043D 24319.52065577 .00000339 00000-0 16714-3 0 9993
2 25397 98.9441 288.6511 0002382 85.8744 274.2707 14.24189521368817
